GFSCGP_prec_precacc24_096.txt.gz
Total_Precipitation_Accumulation
0.00 0.00 0.00 0.00 0.00 0.00 0.00 0.01 0.06 0.24 0.33 0.48 0.31 0.23 0.07 0.04 0.10 0.05 0.03 0.01 0.01 0.00 0.00 0.00 0.00 0.00 0.00 0.00 0.00 0.00 0.00 0.00 0.00 0.00 0.02 0.04 0.10 0.04 0.06 0.11 0.08 0.08 0.14 0.15
0.00 0.00 0.00 0.00 0.00 0.00 0.00 0.00 0.03 0.10 0.28 0.69 1.00 0.51 0.20 0.12 0.16 0.06 0.05 0.02 0.03 0.01 0.00 0.00 0.00 0.00 0.00 0.00 0.00 0.00 0.00 0.00 0.00 0.00 0.02 0.04 0.16 0.10 0.22 0.23 0.12 0.07 0.09 0.13
0.00 0.00 0.00 0.00 0.00 0.00 0.00 0.00 0.00 0.02 0.07 0.36 1.48 1.45 0.71 0.48 0.15 0.08 0.04 0.03 0.06 0.01 0.00 0.00 0.01 0.00 0.00 0.00 0.00 0.00 0.00 0.00 0.00 0.01 0.02 0.14 0.39 0.41 0.17 0.15 0.11 0.02 0.03 0.06
0.00 0.00 0.00 0.00 0.00 0.00 0.00 0.00 0.00 0.01 0.00 0.03 0.08 0.79 0.75 0.46 0.43 0.12 0.13 0.06 0.07 0.03 0.01 0.00 0.01 0.00 0.00 0.00 0.00 0.00 0.00 0.00 0.00 0.01 0.03 0.05 0.05 0.07 0.09 0.06 0.07 0.07 0.04 0.12
0.00 0.00 0.00 0.00 0.00 0.00 0.00 0.00 0.00 0.00 0.02 0.01 0.02 0.24 0.65 0.48 0.50 0.45 0.12 0.13 0.04 0.06 0.03 0.01 0.01 0.02 0.00 0.00 0.00 0.00 0.00 0.00 0.00 0.00 0.08 0.06 0.06 0.16 0.25 0.16 0.10 0.13 0.13 0.15
0.00 0.00 0.00 0.00 0.00 0.00 0.00 0.00 0.00 0.03 0.02 0.01 0.01 0.09 0.46 0.71 0.45 0.43 0.10 0.08 0.02 0.03 0.05 0.01 0.01 0.01 0.01 0.00 0.00 0.00 0.00 0.00 0.00 0.00 0.03 0.04 0.07 0.10 0.19 0.25 0.19 0.09 0.04 0.05
0.00 0.00 0.00 0.00 0.00 0.00 0.00 0.00 0.02 0.02 0.01 0.00 0.00 0.03 0.18 0.60 0.46 0.25 0.20 0.17 0.16 0.11 0.07 0.02 0.02 0.01 0.00 0.00 0.00 0.00 0.00 0.00 0.00 0.00 0.01 0.03 0.08 0.08 0.26 0.14 0.10 0.09 0.10 0.05
0.00 0.00 0.00 0.00 0.00 0.00 0.00 0.00 0.00 0.00 0.00 0.00 0.01 0.02 0.01 0.08 0.20 0.34 0.46 0.41 0.63 0.49 0.24 0.10 0.09 0.04 0.00 0.00 0.00 0.00 0.00 0.00 0.00 0.00 0.00 0.01 0.05 0.06 0.03 0.02 0.03 0.08 0.07 0.10
0.00 0.00 0.00 0.00 0.00 0.00 0.00 0.00 0.00 0.00 0.00 0.00 0.02 0.02 0.04 0.04 0.05 0.06 0.30 0.47 0.36 0.38 0.28 0.12 0.20 0.19 0.04 0.01 0.00 0.00 0.00 0.00 0.00 0.00 0.00 0.01 0.03 0.03 0.01 0.01 0.02 0.06 0.06 0.17
0.00 0.00 0.00 0.00 0.00 0.00 0.00 0.00 0.00 0.00 0.00 0.02 0.05 0.05 0.06 0.05 0.02 0.01 0.06 0.13 0.16 0.20 0.31 0.31 0.36 0.30 0.31 0.20 0.11 0.13 0.18 0.11 0.04 0.01 0.01 0.01 0.02 0.02 0.02 0.03 0.03 0.03 0.03 0.05
0.00 0.00 0.00 0.00 0.00 0.00 0.00 0.00 0.00 0.00 0.00 0.01 0.09 0.15 0.13 0.09 0.02 0.02 0.02 0.03 0.04 0.07 0.20 0.50 1.29 1.93 1.35 1.32 1.11 0.60 0.41 0.27 0.21 0.11 0.11 0.08 0.03 0.03 0.02 0.01 0.03 0.07 0.03 0.08
0.00 0.00 0.00 0.00 0.00 0.00 0.00 0.00 0.00 0.00 0.00 0.00 0.03 0.22 0.31 0.14 0.05 0.04 0.03 0.04 0.02 0.04 0.16 0.37 0.67 2.06 3.69 2.39 2.49 2.24 0.80 0.69 0.42 0.21 0.21 0.11 0.08 0.09 0.08 0.02 0.03 0.04 0.01 0.01
0.00 0.00 0.00 0.00 0.00 0.00 0.00 0.00 0.00 0.00 0.00 0.00 0.00 0.07 0.19 0.26 0.15 0.05 0.04 0.06 0.04 0.03 0.12 0.23 0.32 0.44 1.14 1.27 0.82 2.65 2.61 1.60 1.31 0.62 0.39 0.32 0.32 0.20 0.10 0.05 0.02 0.05 0.01 0.00
0.01 0.00 0.00 0.00 0.00 0.00 0.00 0.00 0.00 0.00 0.00 0.00 0.01 0.05 0.08 0.03 0.09 0.03 0.00 0.00 0.00 0.00 0.03 0.07 0.17 0.22 0.30 0.41 0.61 0.71 1.09 1.36 1.55 1.11 0.75 0.63 0.59 0.39 0.31 0.24 0.16 0.12 0.08 0.01
0.00 0.00 0.00 0.00 0.00 0.00 0.00 0.00 0.00 0.00 0.00 0.02 0.07 0.08 0.04 0.03 0.02 0.00 0.00 0.00 0.00 0.00 0.01 0.02 0.06 0.10 0.14 0.30 0.41 0.56 0.58 0.50 0.56 0.54 1.14 1.18 1.00 0.84 0.73 0.58 0.40 0.27 0.23 0.15
0.00 0.00 0.00 0.00 0.00 0.00 0.00 0.00 0.00 0.00 0.00 0.00 0.02 0.18 0.11 0.04 0.01 0.00 0.00 0.00 0.00 0.00 0.01 0.03 0.04 0.06 0.04 0.09 0.19 0.41 0.52 0.54 0.50 0.40 0.42 0.81 0.98 0.82 0.94 0.95 0.35 0.20 0.16 0.14
0.00 0.00 0.00 0.00 0.00 0.00 0.00 0.00 0.00 0.00 0.00 0.00 0.01 0.11 0.17 0.03 0.00 0.00 0.00 0.00 0.00 0.00 0.00 0.03 0.03 0.03 0.02 0.02 0.04 0.13 0.17 0.22 0.27 0.27 0.22 0.39 0.62 0.56 0.42 0.39 0.26 0.34 0.35 0.36
0.00 0.00 0.00 0.00 0.00 0.00 0.00 0.00 0.00 0.00 0.00 0.00 0.00 0.00 0.02 0.02 0.00 0.00 0.00 0.00 0.00 0.00 0.00 0.00 0.01 0.01 0.02 0.02 0.02 0.04 0.01 0.04 0.11 0.10 0.10 0.20 0.34 0.36 0.34 0.25 0.24 0.25 0.25 0.32
0.00 0.00 0.00 0.00 0.00 0.00 0.00 0.00 0.00 0.00 0.01 0.00 0.01 0.01 0.00 0.00 0.00 0.00 0.00 0.00 0.00 0.00 0.00 0.00 0.00 0.00 0.02 0.02 0.02 0.03 0.03 0.01 0.03 0.12 0.13 0.08 0.11 0.16 0.30 0.23 0.30 0.33 0.32 0.33
0.00 0.00 0.00 0.00 0.00 0.00 0.00 0.00 0.00 0.01 0.06 0.09 0.02 0.00 0.00 0.00 0.01 0.00 0.00 0.00 0.00 0.00 0.00 0.00 0.00 0.00 0.00 0.01 0.04 0.08 0.05 0.01 0.02 0.03 0.06 0.08 0.11 0.10 0.05 0.10 0.21 0.37 0.40 0.39
0.00 0.00 0.00 0.00 0.00 0.00 0.00 0.00 0.00 0.01 0.02 0.07 0.03 0.01 0.00 0.00 0.00 0.00 0.00 0.00 0.00 0.00 0.00 0.00 0.00 0.00 0.00 0.00 0.00 0.02 0.03 0.05 0.05 0.05 0.10 0.06 0.09 0.20 0.16 0.08 0.08 0.09 0.22 0.34
0.00 0.00 0.00 0.00 0.00 0.00 0.00 0.00 0.00 0.00 0.00 0.02 0.04 0.02 0.01 0.01 0.00 0.00 0.00 0.00 0.00 0.00 0.00 0.00 0.00 0.00 0.00 0.00 0.00 0.01 0.01 0.02 0.04 0.08 0.16 0.21 0.22 0.22 0.32 0.31 0.24 0.12 0.14 0.17
0.00 0.00 0.00 0.00 0.02 0.00 0.00 0.00 0.00 0.00 0.00 0.01 0.02 0.02 0.02 0.01 0.00 0.00 0.00 0.00 0.00 0.00 0.00 0.00 0.00 0.00 0.00 0.00 0.00 0.00 0.00 0.01 0.02 0.01 0.03 0.06 0.08 0.11 0.24 0.28 0.32 0.33 0.24 0.17
0.00 0.00 0.00 0.03 0.02 0.00 0.00 0.00 0.00 0.00 0.00 0.00 0.01 0.01 0.01 0.00 0.00 0.00 0.00 0.00 0.00 0.00 0.00 0.00 0.00 0.00 0.00 0.00 0.00 0.00 0.00 0.00 0.00 0.01 0.01 0.01 0.01 0.01 0.09 0.16 0.21 0.28 0.19 0.12
0.00 0.00 0.00 0.00 0.01 0.01 0.00 0.00 0.00 0.00 0.00 0.00 0.00 0.00 0.00 0.00 0.00 0.00 0.00 0.00 0.00 0.00 0.00 0.00 0.00 0.00 0.00 0.00 0.00 0.00 0.00 0.00 0.00 0.00 0.00 0.00 0.00 0.01 0.01 0.05 0.08 0.07 0.11 0.10
0.00 0.00 0.00 0.00 0.00 0.00 0.00 0.00 0.00 0.00 0.00 0.00 0.00 0.00 0.00 0.01 0.01 0.00 0.00 0.00 0.00 0.00 0.00 0.01 0.01 0.00 0.00 0.00 0.00 0.00 0.00 0.01 0.01 0.00 0.00 0.00 0.00 0.03 0.03 0.04 0.02 0.05 0.07 0.09

GFSCGP_prec_precacc24_102.txt.gz
Total_Precipitation_Accumulation
0.00 0.00 0.00 0.00 0.00 0.00 0.00 0.01 0.09 0.47 0.99 0.96 0.56 0.42 0.16 0.07 0.20 0.08 0.02 0.01 0.01 0.00 0.00 0.00 0.04 0.06 0.00 0.00 0.00 0.00 0.00 0.00 0.00 0.00 0.02 0.05 0.10 0.04 0.06 0.18 0.10 0.07 0.08 0.08
0.00 0.00 0.00 0.00 0.00 0.00 0.00 0.00 0.05 0.18 0.54 1.06 1.22 0.79 0.39 0.28 0.27 0.06 0.03 0.02 0.03 0.01 0.00 0.00 0.00 0.00 0.00 0.00 0.00 0.00 0.00 0.00 0.00 0.00 0.02 0.04 0.17 0.11 0.17 0.21 0.14 0.08 0.08 0.10
0.00 0.00 0.00 0.00 0.00 0.00 0.00 0.01 0.02 0.06 0.13 0.55 1.73 1.64 0.92 0.68 0.37 0.22 0.03 0.03 0.06 0.01 0.00 0.01 0.03 0.00 0.00 0.00 0.00 0.00 0.00 0.00 0.00 0.01 0.02 0.16 0.39 0.44 0.17 0.15 0.10 0.05 0.04 0.05
0.00 0.00 0.00 0.00 0.00 0.00 0.00 0.00 0.00 0.02 0.03 0.05 0.10 0.81 0.78 0.54 0.67 0.37 0.19 0.06 0.07 0.03 0.01 0.00 0.01 0.00 0.00 0.00 0.00 0.00 0.00 0.00 0.00 0.01 0.03 0.06 0.05 0.11 0.10 0.06 0.06 0.08 0.08 0.08
0.00 0.00 0.00 0.00 0.00 0.00 0.01 0.00 0.00 0.00 0.02 0.01 0.02 0.24 0.65 0.52 0.59 0.50 0.16 0.13 0.03 0.06 0.03 0.01 0.01 0.02 0.00 0.00 0.00 0.00 0.00 0.00 0.00 0.00 0.08 0.06 0.09 0.16 0.26 0.17 0.10 0.13 0.14 0.15
0.00 0.00 0.00 0.00 0.00 0.00 0.00 0.00 0.01 0.06 0.05 0.02 0.01 0.09 0.46 0.71 0.47 0.46 0.10 0.09 0.03 0.03 0.06 0.02 0.01 0.01 0.01 0.00 0.00 0.00 0.00 0.00 0.00 0.00 0.03 0.04 0.09 0.10 0.19 0.25 0.19 0.09 0.04 0.08
0.00 0.00 0.00 0.00 0.00 0.00 0.00 0.00 0.04 0.07 0.03 0.00 0.00 0.03 0.18 0.60 0.47 0.27 0.20 0.17 0.16 0.11 0.08 0.03 0.04 0.01 0.00 0.00 0.00 0.00 0.00 0.00 0.00 0.00 0.01 0.03 0.10 0.14 0.28 0.14 0.11 0.09 0.10 0.05
0.00 0.00 0.00 0.00 0.00 0.00 0.00 0.00 0.00 0.00 0.00 0.00 0.03 0.03 0.01 0.08 0.21 0.34 0.47 0.42 0.66 0.53 0.25 0.11 0.11 0.04 0.00 0.00 0.00 0.00 0.00 0.00 0.00 0.00 0.00 0.01 0.05 0.10 0.05 0.09 0.07 0.09 0.07 0.10
0.00 0.00 0.00 0.00 0.00 0.00 0.00 0.00 0.00 0.00 0.00 0.00 0.04 0.02 0.05 0.06 0.10 0.06 0.31 0.52 0.40 0.45 0.37 0.17 0.27 0.30 0.07 0.01 0.00 0.00 0.00 0.00 0.00 0.00 0.00 0.01 0.03 0.03 0.04 0.05 0.03 0.07 0.07 0.19
0.00 0.00 0.00 0.00 0.00 0.00 0.00 0.00 0.00 0.00 0.00 0.02 0.05 0.05 0.06 0.07 0.06 0.10 0.07 0.13 0.17 0.24 0.39 0.37 0.40 0.37 0.41 0.20 0.12 0.13 0.21 0.13 0.04 0.01 0.01 0.01 0.02 0.02 0.03 0.04 0.05 0.08 0.06 0.11
0.00 0.00 0.00 0.00 0.00 0.00 0.00 0.00 0.00 0.00 0.00 0.01 0.10 0.17 0.13 0.11 0.09 0.12 0.12 0.09 0.08 0.09 0.26 0.63 1.41 1.99 1.54 1.39 1.13 0.67 0.59 0.48 0.34 0.12 0.11 0.08 0.04 0.04 0.05 0.02 0.03 0.10 0.08 0.15
0.00 0.00 0.00 0.00 0.00 0.00 0.00 0.00 0.00 0.00 0.00 0.00 0.05 0.24 0.34 0.15 0.11 0.11 0.16 0.17 0.14 0.12 0.19 0.48 0.89 2.29 3.98 2.49 2.65 2.70 1.34 1.11 0.71 0.37 0.25 0.11 0.09 0.12 0.14 0.04 0.04 0.06 0.06 0.11
0.00 0.00 0.00 0.00 0.00 0.00 0.00 0.00 0.00 0.00 0.00 0.00 0.01 0.10 0.27 0.28 0.16 0.07 0.07 0.09 0.10 0.13 0.19 0.25 0.40 0.75 1.39 1.56 1.17 2.94 3.11 2.03 1.61 1.00 0.62 0.37 0.35 0.24 0.14 0.12 0.11 0.06 0.04 0.08
0.01 0.00 0.00 0.00 0.00 0.00 0.00 0.00 0.00 0.00 0.00 0.00 0.01 0.06 0.10 0.04 0.10 0.04 0.01 0.01 0.01 0.02 0.06 0.09 0.19 0.37 0.54 0.77 1.04 0.94 1.22 1.70 1.97 1.42 1.03 0.75 0.65 0.47 0.38 0.30 0.23 0.14 0.10 0.05
0.00 0.00 0.00 0.00 0.00 0.00 0.00 0.00 0.00 0.00 0.00 0.02 0.07 0.08 0.05 0.04 0.02 0.00 0.00 0.00 0.00 0.01 0.01 0.01 0.04 0.09 0.24 0.46 0.44 0.58 0.60 0.51 0.73 0.96 1.71 1.57 1.08 0.91 0.82 0.69 0.45 0.32 0.27 0.17
0.00 0.00 0.00 0.00 0.00 0.00 0.00 0.00 0.00 0.00 0.00 0.00 0.02 0.18 0.11 0.04 0.01 0.00 0.00 0.00 0.00 0.00 0.00 0.01 0.01 0.04 0.09 0.09 0.20 0.40 0.51 0.53 0.51 0.43 0.53 1.01 1.17 0.92 1.02 1.07 0.45 0.27 0.26 0.27
0.00 0.00 0.00 0.01 0.00 0.00 0.00 0.00 0.00 0.00 0.00 0.00 0.01 0.11 0.17 0.03 0.00 0.00 0.00 0.00 0.00 0.00 0.00 0.01 0.03 0.06 0.04 0.03 0.07 0.13 0.17 0.19 0.25 0.27 0.22 0.37 0.61 0.67 0.52 0.45 0.31 0.39 0.42 0.51
0.00 0.00 0.00 0.01 0.00 0.01 0.00 0.00 0.00 0.01 0.01 0.01 0.00 0.00 0.02 0.02 0.00 0.01 0.01 0.00 0.00 0.00 0.00 0.00 0.01 0.03 0.03 0.02 0.01 0.02 0.02 0.03 0.02 0.04 0.10 0.21 0.35 0.39 0.41 0.33 0.32 0.28 0.30 0.43
0.00 0.00 0.00 0.00 0.01 0.01 0.00 0.00 0.00 0.02 0.06 0.06 0.02 0.02 0.00 0.00 0.00 0.00 0.00 0.00 0.00 0.00 0.00 0.00 0.00 0.01 0.01 0.01 0.01 0.00 0.01 0.01 0.02 0.06 0.08 0.09 0.12 0.18 0.23 0.22 0.29 0.34 0.36 0.38
0.00 0.00 0.00 0.00 0.00 0.01 0.01 0.00 0.00 0.00 0.06 0.13 0.05 0.04 0.03 0.01 0.01 0.01 0.00 0.00 0.00 0.00 0.00 0.01 0.01 0.00 0.00 0.00 0.00 0.00 0.00 0.00 0.01 0.02 0.05 0.08 0.09 0.07 0.06 0.08 0.12 0.30 0.39 0.39
0.00 0.00 0.00 0.00 0.00 0.00 0.00 0.00 0.00 0.01 0.03 0.14 0.17 0.19 0.14 0.08 0.08 0.04 0.00 0.00 0.00 0.00 0.00 0.00 0.00 0.00 0.00 0.00 0.00 0.00 0.00 0.00 0.00 0.00 0.03 0.04 0.08 0.14 0.08 0.04 0.03 0.09 0.22 0.30
0.00 0.00 0.00 0.00 0.00 0.00 0.00 0.00 0.00 0.00 0.01 0.06 0.12 0.18 0.18 0.14 0.12 0.07 0.03 0.01 0.00 0.00 0.00 0.00 0.00 0.00 0.00 0.00 0.00 0.00 0.00 0.00 0.00 0.00 0.00 0.02 0.05 0.08 0.14 0.21 0.16 0.09 0.09 0.12
0.00 0.00 0.00 0.00 0.02 0.00 0.00 0.00 0.00 0.00 0.01 0.05 0.09 0.12 0.15 0.17 0.15 0.10 0.05 0.01 0.00 0.00 0.00 0.00 0.00 0.00 0.00 0.00 0.00 0.00 0.00 0.00 0.00 0.00 0.00 0.00 0.02 0.03 0.05 0.08 0.17 0.27 0.21 0.12
0.00 0.00 0.00 0.03 0.02 0.00 0.00 0.00 0.00 0.00 0.03 0.05 0.09 0.09 0.09 0.11 0.13 0.07 0.05 0.02 0.00 0.00 0.00 0.00 0.00 0.00 0.00 0.00 0.00 0.00 0.00 0.00 0.00 0.00 0.00 0.00 0.00 0.00 0.01 0.04 0.07 0.13 0.14 0.10
0.00 0.00 0.00 0.00 0.01 0.01 0.00 0.00 0.00 0.00 0.03 0.05 0.09 0.11 0.09 0.08 0.09 0.06 0.03 0.01 0.00 0.00 0.00 0.00 0.00 0.00 0.00 0.00 0.00 0.00 0.00 0.00 0.00 0.00 0.00 0.00 0.00 0.00 0.00 0.01 0.01 0.02 0.04 0.05
0.00 0.00 0.00 0.00 0.00 0.00 0.00 0.00 0.00 0.00 0.00 0.00 0.02 0.06 0.08 0.07 0.06 0.03 0.04 0.06 0.01 0.00 0.00 0.00 0.01 0.00 0.00 0.00 0.00 0.00 0.00 0.01 0.01 0.00 0.00 0.00 0.00 0.00 0.00 0.00 0.00 0.00 0.00 0.01

GFSCGP_prec_precacc24_105.txt.gz
Total_Precipitation_Accumulation
0.00 0.00 0.00 0.00 0.00 0.00 0.00 0.01 0.17 0.55 1.03 1.10 0.71 0.47 0.19 0.21 0.21 0.11 0.02 0.01 0.01 0.02 0.00 0.00 0.04 0.08 0.00 0.00 0.00 0.00 0.00 0.00 0.00 0.01 0.02 0.05 0.10 0.04 0.07 0.18 0.10 0.08 0.09 0.09
0.00 0.00 0.00 0.00 0.00 0.00 0.00 0.01 0.09 0.21 0.61 1.19 1.51 0.89 0.42 0.32 0.28 0.08 0.03 0.02 0.03 0.02 0.00 0.00 0.00 0.00 0.00 0.00 0.00 0.00 0.00 0.00 0.00 0.00 0.02 0.04 0.17 0.11 0.22 0.23 0.17 0.09 0.08 0.10
0.00 0.00 0.00 0.00 0.00 0.00 0.01 0.01 0.06 0.11 0.13 0.59 1.94 1.88 1.01 0.75 0.41 0.26 0.04 0.03 0.06 0.01 0.00 0.01 0.03 0.00 0.00 0.00 0.00 0.00 0.00 0.00 0.00 0.01 0.02 0.16 0.39 0.44 0.23 0.19 0.14 0.05 0.04 0.05
0.00 0.00 0.00 0.00 0.00 0.00 0.01 0.01 0.01 0.03 0.03 0.05 0.15 1.04 0.93 0.61 0.75 0.41 0.20 0.06 0.06 0.02 0.01 0.00 0.01 0.00 0.00 0.00 0.00 0.00 0.00 0.00 0.00 0.01 0.03 0.09 0.08 0.17 0.18 0.13 0.09 0.08 0.09 0.08
0.00 0.00 0.00 0.00 0.00 0.00 0.01 0.00 0.00 0.01 0.02 0.01 0.02 0.26 0.68 0.55 0.61 0.51 0.22 0.13 0.03 0.04 0.02 0.01 0.01 0.02 0.00 0.00 0.00 0.00 0.00 0.00 0.00 0.00 0.08 0.06 0.11 0.19 0.29 0.17 0.14 0.18 0.21 0.17
0.00 0.00 0.00 0.00 0.00 0.00 0.00 0.00 0.02 0.08 0.06 0.02 0.01 0.09 0.46 0.72 0.47 0.45 0.10 0.10 0.02 0.03 0.03 0.02 0.01 0.01 0.00 0.00 0.00 0.00 0.00 0.00 0.00 0.00 0.03 0.05 0.11 0.12 0.19 0.26 0.22 0.14 0.09 0.15
0.00 0.00 0.00 0.00 0.00 0.00 0.00 0.00 0.05 0.09 0.05 0.00 0.00 0.03 0.18 0.60 0.47 0.27 0.20 0.17 0.16 0.11 0.08 0.03 0.04 0.01 0.00 0.00 0.00 0.00 0.00 0.00 0.00 0.00 0.01 0.03 0.12 0.15 0.29 0.15 0.11 0.10 0.11 0.06
0.00 0.00 0.00 0.00 0.00 0.00 0.00 0.00 0.00 0.00 0.00 0.00 0.03 0.03 0.01 0.08 0.21 0.34 0.47 0.42 0.66 0.53 0.25 0.11 0.10 0.04 0.00 0.00 0.00 0.00 0.00 0.00 0.00 0.00 0.00 0.01 0.05 0.10 0.06 0.09 0.07 0.09 0.08 0.12
0.00 0.00 0.00 0.00 0.00 0.00 0.00 0.00 0.00 0.00 0.00 0.00 0.04 0.02 0.05 0.06 0.10 0.06 0.31 0.52 0.40 0.45 0.37 0.17 0.24 0.30 0.07 0.01 0.00 0.00 0.00 0.00 0.00 0.00 0.00 0.01 0.03 0.03 0.04 0.05 0.03 0.07 0.07 0.20
0.00 0.00 0.00 0.00 0.00 0.00 0.00 0.00 0.00 0.00 0.00 0.02 0.05 0.05 0.06 0.07 0.06 0.10 0.07 0.13 0.17 0.24 0.39 0.37 0.40 0.31 0.39 0.20 0.12 0.13 0.21 0.13 0.04 0.02 0.03 0.03 0.03 0.02 0.03 0.06 0.09 0.10 0.08 0.11
0.00 0.00 0.00 0.00 0.00 0.00 0.00 0.00 0.00 0.00 0.00 0.01 0.10 0.17 0.13 0.11 0.09 0.12 0.12 0.09 0.08 0.09 0.26 0.63 1.41 1.95 1.47 1.38 1.13 0.67 0.62 0.49 0.35 0.12 0.11 0.12 0.08 0.05 0.05 0.06 0.10 0.10 0.08 0.15
0.00 0.00 0.00 0.00 0.00 0.00 0.00 0.00 0.00 0.00 0.00 0.00 0.05 0.24 0.34 0.15 0.11 0.11 0.16 0.18 0.16 0.14 0.21 0.48 0.89 2.31 3.98 2.50 2.66 2.70 1.38 1.14 0.72 0.38 0.26 0.11 0.12 0.15 0.15 0.06 0.10 0.11 0.08 0.11
0.00 0.00 0.00 0.00 0.00 0.00 0.00 0.00 0.00 0.00 0.00 0.00 0.01 0.10 0.27 0.28 0.16 0.07 0.07 0.09 0.11 0.15 0.22 0.25 0.41 0.79 1.44 1.66 1.27 2.97 3.15 2.14 1.65 1.02 0.73 0.46 0.43 0.28 0.16 0.13 0.12 0.10 0.06 0.09
0.01 0.00 0.00 0.00 0.00 0.00 0.00 0.00 0.00 0.00 0.00 0.00 0.01 0.06 0.11 0.04 0.10 0.04 0.01 0.01 0.01 0.03 0.06 0.08 0.17 0.39 0.62 0.89 1.27 1.36 1.47 1.87 2.26 1.55 1.12 0.84 0.69 0.48 0.39 0.31 0.23 0.14 0.10 0.06
0.00 0.00 0.00 0.00 0.00 0.00 0.00 0.00 0.00 0.00 0.00 0.02 0.07 0.08 0.05 0.04 0.02 0.01 0.01 0.00 0.02 0.05 0.06 0.03 0.06 0.10 0.25 0.48 0.47 0.62 0.79 0.70 0.89 1.30 1.90 1.70 1.19 0.91 0.82 0.69 0.45 0.32 0.27 0.17
0.00 0.00 0.00 0.00 0.00 0.00 0.00 0.00 0.00 0.00 0.00 0.00 0.02 0.18 0.11 0.04 0.01 0.00 0.01 0.00 0.00 0.01 0.02 0.02 0.06 0.11 0.11 0.07 0.11 0.26 0.44 0.53 0.61 0.52 0.69 1.14 1.31 0.98 1.03 1.07 0.45 0.27 0.26 0.27
0.00 0.01 0.01 0.01 0.00 0.00 0.00 0.00 0.00 0.00 0.00 0.00 0.01 0.11 0.17 0.03 0.00 0.01 0.00 0.00 0.00 0.00 0.00 0.01 0.08 0.17 0.13 0.07 0.08 0.06 0.11 0.16 0.25 0.29 0.25 0.47 0.67 0.70 0.53 0.45 0.31 0.39 0.42 0.51
0.00 0.00 0.00 0.01 0.00 0.01 0.00 0.00 0.00 0.01 0.01 0.01 0.00 0.00 0.02 0.02 0.01 0.01 0.02 0.01 0.00 0.00 0.00 0.01 0.03 0.09 0.13 0.12 0.06 0.04 0.06 0.04 0.03 0.04 0.10 0.24 0.39 0.40 0.42 0.34 0.34 0.29 0.30 0.43
0.00 0.00 0.00 0.00 0.01 0.01 0.00 0.00 0.00 0.02 0.06 0.06 0.02 0.02 0.00 0.01 0.03 0.02 0.01 0.01 0.00 0.00 0.00 0.02 0.02 0.03 0.02 0.04 0.04 0.03 0.03 0.04 0.03 0.05 0.07 0.09 0.12 0.17 0.23 0.22 0.30 0.33 0.35 0.38
0.00 0.00 0.00 0.00 0.00 0.01 0.01 0.00 0.00 0.00 0.06 0.14 0.06 0.06 0.08 0.10 0.05 0.01 0.01 0.01 0.00 0.00 0.00 0.02 0.04 0.02 0.01 0.01 0.01 0.01 0.01 0.01 0.00 0.01 0.02 0.07 0.08 0.07 0.06 0.07 0.11 0.28 0.39 0.38
0.00 0.00 0.00 0.00 0.00 0.00 0.00 0.00 0.00 0.01 0.03 0.14 0.17 0.20 0.16 0.12 0.09 0.06 0.03 0.01 0.00 0.00 0.00 0.00 0.00 0.00 0.00 0.00 0.00 0.00 0.00 0.00 0.00 0.00 0.00 0.01 0.06 0.08 0.05 0.03 0.03 0.08 0.21 0.28
0.00 0.00 0.00 0.00 0.00 0.00 0.00 0.00 0.00 0.00 0.01 0.06 0.12 0.20 0.21 0.21 0.19 0.20 0.11 0.04 0.01 0.00 0.00 0.00 0.00 0.00 0.00 0.00 0.00 0.00 0.00 0.00 0.00 0.00 0.00 0.00 0.01 0.06 0.10 0.16 0.13 0.05 0.04 0.09
0.00 0.00 0.00 0.00 0.02 0.00 0.00 0.00 0.00 0.00 0.01 0.05 0.11 0.15 0.23 0.28 0.24 0.22 0.13 0.01 0.00 0.00 0.00 0.00 0.00 0.00 0.00 0.00 0.00 0.00 0.00 0.00 0.00 0.00 0.00 0.00 0.00 0.00 0.01 0.04 0.08 0.11 0.11 0.07
0.00 0.00 0.00 0.03 0.02 0.00 0.00 0.00 0.00 0.00 0.03 0.05 0.10 0.10 0.11 0.18 0.23 0.14 0.16 0.08 0.00 0.00 0.00 0.00 0.00 0.00 0.00 0.00 0.00 0.00 0.00 0.00 0.00 0.00 0.00 0.00 0.00 0.00 0.00 0.00 0.01 0.03 0.06 0.07
0.00 0.00 0.00 0.00 0.01 0.01 0.00 0.00 0.00 0.00 0.03 0.06 0.10 0.15 0.12 0.11 0.13 0.13 0.08 0.13 0.13 0.02 0.00 0.00 0.00 0.00 0.00 0.00 0.00 0.00 0.00 0.00 0.00 0.00 0.00 0.00 0.00 0.00 0.00 0.00 0.00 0.01 0.02 0.04
0.00 0.00 0.00 0.00 0.00 0.00 0.00 0.00 0.00 0.00 0.00 0.00 0.03 0.09 0.12 0.12 0.09 0.08 0.10 0.13 0.15 0.09 0.01 0.01 0.01 0.00 0.00 0.00 0.00 0.00 0.00 0.01 0.01 0.00 0.00 0.00 0.00 0.00 0.00 0.00 0.00 0.00 0.00 0.01

GFSCGP_prec_precacc24_111.txt.gz
Total_Precipitation_Accumulation
0.00 0.00 0.00 0.00 0.00 0.01 0.05 0.08 0.44 0.62 1.24 2.09 1.62 0.85 0.30 0.32 0.24 0.14 0.01 0.00 0.00 0.02 0.00 0.00 0.04 0.08 0.00 0.00 0.00 0.02 0.07 0.06 0.01 0.01 0.02 0.04 0.08 0.04 0.05 0.16 0.11 0.09 0.05 0.05
0.00 0.00 0.00 0.00 0.00 0.00 0.01 0.16 0.40 0.36 0.86 1.60 2.62 1.44 0.58 0.61 0.29 0.08 0.04 0.00 0.00 0.01 0.00 0.00 0.00 0.00 0.00 0.00 0.00 0.02 0.05 0.10 0.09 0.00 0.02 0.06 0.18 0.11 0.17 0.17 0.21 0.19 0.11 0.08
0.00 0.00 0.00 0.00 0.00 0.00 0.02 0.08 0.17 0.26 0.23 0.71 2.24 2.56 1.49 1.19 0.53 0.31 0.07 0.02 0.02 0.00 0.00 0.00 0.02 0.01 0.00 0.00 0.00 0.00 0.03 0.06 0.11 0.03 0.03 0.18 0.50 0.57 0.41 0.31 0.21 0.11 0.08 0.03
0.00 0.00 0.00 0.00 0.00 0.00 0.02 0.02 0.25 0.15 0.14 0.14 0.18 1.32 1.61 1.02 0.93 0.46 0.12 0.01 0.04 0.00 0.00 0.00 0.00 0.00 0.00 0.00 0.00 0.00 0.01 0.02 0.03 0.10 0.06 0.17 0.20 0.34 0.22 0.18 0.11 0.10 0.10 0.04
0.00 0.00 0.00 0.00 0.00 0.00 0.01 0.01 0.24 0.05 0.04 0.03 0.03 0.29 0.81 0.80 0.87 0.53 0.18 0.02 0.02 0.00 0.00 0.00 0.00 0.01 0.00 0.00 0.00 0.00 0.01 0.04 0.02 0.08 0.29 0.17 0.11 0.18 0.25 0.23 0.22 0.24 0.17 0.13
0.00 0.00 0.00 0.00 0.00 0.00 0.01 0.00 0.03 0.12 0.09 0.04 0.02 0.13 0.43 0.77 0.53 0.46 0.12 0.09 0.02 0.03 0.01 0.01 0.00 0.01 0.01 0.00 0.00 0.00 0.00 0.02 0.04 0.06 0.09 0.21 0.27 0.23 0.27 0.26 0.25 0.15 0.10 0.13
0.00 0.00 0.00 0.00 0.00 0.00 0.00 0.01 0.11 0.14 0.07 0.03 0.00 0.05 0.18 0.60 0.47 0.27 0.21 0.17 0.16 0.11 0.06 0.02 0.03 0.01 0.00 0.00 0.00 0.00 0.00 0.01 0.01 0.02 0.05 0.09 0.27 0.30 0.35 0.15 0.08 0.13 0.14 0.09
0.00 0.00 0.00 0.00 0.00 0.00 0.00 0.00 0.03 0.06 0.02 0.04 0.04 0.04 0.02 0.08 0.21 0.35 0.47 0.42 0.66 0.53 0.25 0.07 0.08 0.05 0.00 0.00 0.00 0.00 0.00 0.00 0.00 0.00 0.03 0.06 0.18 0.19 0.15 0.13 0.20 0.11 0.14 0.14
0.00 0.00 0.00 0.00 0.00 0.00 0.00 0.00 0.00 0.01 0.00 0.06 0.07 0.02 0.05 0.06 0.10 0.06 0.31 0.52 0.40 0.45 0.37 0.16 0.17 0.22 0.06 0.01 0.00 0.00 0.00 0.00 0.00 0.00 0.01 0.04 0.04 0.08 0.21 0.26 0.21 0.10 0.08 0.19
0.00 0.00 0.00 0.00 0.00 0.00 0.00 0.00 0.00 0.00 0.00 0.04 0.10 0.07 0.06 0.07 0.06 0.10 0.07 0.14 0.17 0.24 0.39 0.37 0.36 0.28 0.28 0.19 0.12 0.13 0.21 0.13 0.04 0.02 0.04 0.04 0.04 0.03 0.11 0.20 0.23 0.23 0.27 0.20
0.00 0.00 0.00 0.00 0.00 0.00 0.00 0.00 0.00 0.00 0.00 0.01 0.14 0.19 0.14 0.11 0.09 0.12 0.11 0.08 0.08 0.10 0.24 0.62 1.24 1.58 1.26 1.36 1.12 0.67 0.62 0.49 0.35 0.12 0.11 0.14 0.09 0.07 0.08 0.16 0.17 0.25 0.25 0.27
0.00 0.00 0.00 0.00 0.00 0.00 0.00 0.00 0.00 0.00 0.00 0.00 0.05 0.29 0.34 0.15 0.11 0.11 0.16 0.18 0.15 0.14 0.19 0.41 0.72 1.78 3.58 2.37 2.59 2.62 1.36 1.13 0.72 0.38 0.26 0.11 0.15 0.16 0.15 0.09 0.13 0.24 0.21 0.23
0.00 0.00 0.00 0.00 0.00 0.00 0.00 0.00 0.00 0.00 0.00 0.00 0.01 0.11 0.27 0.28 0.16 0.08 0.07 0.09 0.11 0.15 0.21 0.23 0.35 0.71 1.33 1.52 1.17 2.91 3.09 2.11 1.68 1.04 0.73 0.48 0.59 0.29 0.17 0.13 0.16 0.16 0.15 0.17
0.01 0.00 0.00 0.00 0.00 0.00 0.00 0.00 0.00 0.00 0.00 0.00 0.01 0.06 0.11 0.05 0.10 0.04 0.01 0.01 0.01 0.04 0.07 0.08 0.17 0.36 0.51 0.71 0.92 1.30 1.49 1.90 2.29 1.63 1.23 0.99 0.83 0.51 0.42 0.31 0.23 0.16 0.14 0.12
0.00 0.00 0.00 0.00 0.00 0.00 0.00 0.00 0.00 0.00 0.00 0.02 0.07 0.08 0.05 0.04 0.02 0.01 0.01 0.01 0.03 0.07 0.11 0.07 0.09 0.10 0.21 0.35 0.28 0.41 0.61 0.60 0.90 1.36 2.02 1.88 1.37 1.04 0.94 0.76 0.48 0.33 0.28 0.20
0.00 0.00 0.00 0.00 0.00 0.00 0.00 0.00 0.00 0.00 0.00 0.00 0.02 0.18 0.11 0.08 0.01 0.00 0.01 0.01 0.01 0.12 0.15 0.08 0.14 0.14 0.12 0.09 0.11 0.05 0.16 0.28 0.48 0.52 0.79 1.35 1.55 1.29 1.25 1.20 0.53 0.31 0.27 0.28
0.00 0.01 0.01 0.01 0.00 0.00 0.00 0.00 0.00 0.00 0.00 0.00 0.01 0.12 0.18 0.10 0.01 0.01 0.01 0.02 0.05 0.03 0.03 0.07 0.15 0.21 0.19 0.15 0.14 0.05 0.04 0.04 0.13 0.27 0.39 0.85 0.96 1.06 0.80 0.59 0.41 0.44 0.43 0.52
0.00 0.00 0.01 0.02 0.05 0.03 0.00 0.00 0.00 0.01 0.01 0.01 0.00 0.01 0.02 0.02 0.01 0.02 0.03 0.03 0.02 0.01 0.04 0.07 0.05 0.17 0.19 0.21 0.15 0.07 0.07 0.03 0.04 0.05 0.08 0.22 0.42 0.52 0.69 0.58 0.47 0.34 0.32 0.45
0.00 0.00 0.00 0.00 0.07 0.11 0.03 0.00 0.00 0.02 0.08 0.08 0.02 0.02 0.00 0.02 0.05 0.04 0.03 0.02 0.00 0.00 0.01 0.03 0.03 0.08 0.18 0.14 0.14 0.09 0.05 0.05 0.03 0.01 0.03 0.04 0.08 0.17 0.23 0.28 0.31 0.28 0.30 0.40
0.00 0.00 0.00 0.00 0.00 0.12 0.25 0.04 0.00 0.00 0.09 0.20 0.06 0.06 0.09 0.12 0.10 0.02 0.03 0.03 0.00 0.00 0.00 0.02 0.06 0.06 0.12 0.17 0.10 0.06 0.06 0.08 0.05 0.02 0.03 0.02 0.02 0.03 0.06 0.08 0.07 0.16 0.19 0.22
0.00 0.00 0.00 0.00 0.00 0.01 0.02 0.03 0.00 0.02 0.06 0.14 0.17 0.21 0.21 0.16 0.13 0.12 0.09 0.11 0.02 0.00 0.00 0.00 0.02 0.04 0.05 0.07 0.10 0.07 0.07 0.07 0.07 0.06 0.02 0.01 0.00 0.00 0.00 0.00 0.02 0.04 0.05 0.04
0.00 0.00 0.00 0.00 0.02 0.03 0.00 0.00 0.03 0.05 0.01 0.06 0.12 0.20 0.22 0.28 0.39 0.30 0.21 0.09 0.04 0.00 0.00 0.00 0.01 0.03 0.02 0.01 0.04 0.06 0.05 0.04 0.03 0.02 0.01 0.00 0.00 0.00 0.00 0.00 0.00 0.00 0.00 0.00
0.00 0.00 0.01 0.01 0.06 0.01 0.00 0.00 0.00 0.00 0.01 0.05 0.11 0.15 0.24 0.34 0.30 0.28 0.20 0.08 0.05 0.01 0.00 0.00 0.00 0.01 0.03 0.02 0.01 0.02 0.03 0.03 0.02 0.01 0.01 0.01 0.01 0.00 0.00 0.00 0.00 0.00 0.00 0.00
0.00 0.00 0.00 0.03 0.02 0.00 0.00 0.00 0.00 0.00 0.03 0.05 0.10 0.11 0.14 0.24 0.31 0.23 0.26 0.18 0.07 0.02 0.01 0.01 0.00 0.00 0.01 0.01 0.01 0.01 0.01 0.02 0.01 0.01 0.01 0.00 0.00 0.00 0.00 0.00 0.00 0.00 0.00 0.00
0.00 0.00 0.00 0.00 0.01 0.01 0.00 0.00 0.00 0.00 0.03 0.06 0.10 0.15 0.14 0.13 0.17 0.23 0.20 0.19 0.15 0.03 0.00 0.00 0.00 0.00 0.00 0.00 0.00 0.00 0.00 0.00 0.00 0.00 0.00 0.00 0.00 0.00 0.00 0.00 0.00 0.00 0.00 0.00
0.00 0.00 0.00 0.01 0.01 0.01 0.01 0.00 0.00 0.00 0.00 0.00 0.03 0.09 0.13 0.14 0.13 0.13 0.17 0.17 0.19 0.15 0.03 0.01 0.00 0.00 0.00 0.00 0.00 0.00 0.00 0.00 0.00 0.00 0.00 0.00 0.00 0.00 0.00 0.00 0.00 0.00 0.00 0.00

GFSCGP_prec_precacc24_114.txt.gz
Total_Precipitation_Accumulation
0.00 0.00 0.00 0.00 0.00 0.01 0.06 0.14 0.74 0.68 1.36 2.40 2.15 1.34 0.33 0.32 0.22 0.13 0.00 0.00 0.00 0.02 0.00 0.00 0.04 0.08 0.00 0.00 0.00 0.02 0.07 0.06 0.01 0.01 0.03 0.03 0.08 0.03 0.04 0.13 0.09 0.07 0.05 0.04
0.00 0.00 0.00 0.00 0.00 0.01 0.01 0.19 0.54 0.50 0.94 1.70 2.69 1.72 0.72 0.62 0.30 0.09 0.04 0.00 0.00 0.01 0.00 0.00 0.00 0.00 0.00 0.00 0.00 0.02 0.06 0.10 0.10 0.01 0.02 0.05 0.14 0.09 0.16 0.17 0.21 0.19 0.11 0.08
0.00 0.00 0.00 0.00 0.00 0.00 0.02 0.13 0.40 0.46 0.31 0.78 2.33 2.81 1.81 1.21 0.62 0.44 0.07 0.01 0.01 0.01 0.01 0.00 0.02 0.01 0.00 0.00 0.00 0.01 0.05 0.07 0.13 0.06 0.05 0.14 0.25 0.26 0.36 0.30 0.19 0.11 0.08 0.03
0.00 0.00 0.00 0.00 0.00 0.00 0.02 0.04 0.43 1.01 0.35 0.22 0.22 1.47 2.00 1.16 0.99 0.77 0.17 0.01 0.01 0.01 0.01 0.00 0.00 0.00 0.00 0.00 0.00 0.00 0.01 0.04 0.05 0.12 0.11 0.19 0.21 0.31 0.22 0.18 0.11 0.10 0.10 0.03
0.00 0.00 0.00 0.00 0.00 0.01 0.01 0.01 0.40 0.38 0.25 0.07 0.03 0.33 0.74 0.79 0.87 0.67 0.25 0.02 0.02 0.00 0.00 0.02 0.00 0.00 0.00 0.00 0.00 0.00 0.01 0.07 0.05 0.11 0.27 0.17 0.10 0.06 0.11 0.14 0.22 0.22 0.17 0.13
0.00 0.00 0.00 0.00 0.00 0.01 0.01 0.00 0.09 0.39 0.26 0.13 0.03 0.15 0.32 0.29 0.31 0.46 0.13 0.09 0.03 0.03 0.01 0.02 0.03 0.01 0.02 0.00 0.00 0.00 0.00 0.03 0.11 0.11 0.10 0.25 0.35 0.40 0.22 0.17 0.19 0.13 0.09 0.13
0.00 0.00 0.00 0.00 0.00 0.00 0.00 0.01 0.18 0.25 0.13 0.11 0.02 0.06 0.04 0.03 0.12 0.22 0.20 0.16 0.12 0.08 0.05 0.02 0.06 0.03 0.02 0.02 0.00 0.00 0.00 0.01 0.03 0.03 0.06 0.13 0.36 0.53 0.29 0.15 0.08 0.13 0.12 0.09
0.00 0.00 0.00 0.00 0.00 0.00 0.00 0.00 0.07 0.16 0.12 0.12 0.07 0.06 0.03 0.05 0.08 0.28 0.47 0.41 0.34 0.37 0.23 0.07 0.09 0.06 0.05 0.01 0.01 0.00 0.00 0.00 0.00 0.00 0.04 0.10 0.22 0.21 0.16 0.15 0.28 0.15 0.14 0.09
0.00 0.00 0.00 0.00 0.00 0.00 0.00 0.00 0.00 0.04 0.07 0.13 0.19 0.27 0.08 0.08 0.10 0.07 0.32 0.49 0.32 0.38 0.38 0.16 0.16 0.22 0.09 0.03 0.00 0.00 0.00 0.00 0.00 0.00 0.02 0.04 0.05 0.08 0.26 0.33 0.40 0.19 0.11 0.11
0.00 0.00 0.00 0.00 0.00 0.00 0.00 0.00 0.00 0.01 0.04 0.06 0.17 0.21 0.26 0.10 0.07 0.11 0.10 0.14 0.13 0.21 0.36 0.18 0.21 0.25 0.23 0.13 0.07 0.12 0.21 0.13 0.04 0.02 0.04 0.04 0.04 0.04 0.13 0.23 0.28 0.29 0.39 0.70
0.00 0.00 0.00 0.00 0.00 0.00 0.00 0.00 0.00 0.00 0.00 0.03 0.16 0.23 0.27 0.21 0.15 0.12 0.13 0.11 0.10 0.09 0.22 0.49 0.51 0.77 1.07 0.63 0.47 0.42 0.58 0.48 0.35 0.12 0.11 0.14 0.09 0.07 0.08 0.17 0.18 0.29 0.40 0.35
0.00 0.00 0.00 0.00 0.00 0.00 0.00 0.00 0.00 0.00 0.00 0.00 0.03 0.21 0.36 0.25 0.19 0.12 0.17 0.21 0.20 0.15 0.18 0.33 0.52 1.26 2.30 1.45 1.21 1.92 1.09 1.01 0.68 0.38 0.26 0.11 0.15 0.16 0.15 0.09 0.13 0.26 0.25 0.28
0.00 0.00 0.00 0.00 0.00 0.00 0.00 0.00 0.00 0.00 0.00 0.00 0.01 0.10 0.25 0.28 0.17 0.07 0.07 0.11 0.14 0.18 0.22 0.18 0.29 0.64 1.31 0.92 0.77 1.62 2.12 1.58 1.50 0.93 0.71 0.51 0.66 0.29 0.17 0.12 0.16 0.16 0.18 0.23
0.01 0.00 0.00 0.00 0.00 0.00 0.00 0.00 0.00 0.00 0.00 0.00 0.01 0.05 0.10 0.05 0.10 0.04 0.01 0.01 0.04 0.07 0.10 0.08 0.14 0.31 0.79 1.22 0.85 1.09 1.26 1.60 2.01 1.32 1.04 0.98 0.92 0.57 0.44 0.31 0.22 0.16 0.14 0.16
0.00 0.00 0.00 0.00 0.00 0.00 0.00 0.00 0.00 0.00 0.00 0.01 0.05 0.08 0.06 0.04 0.02 0.01 0.01 0.01 0.04 0.10 0.14 0.11 0.13 0.11 0.22 0.44 0.22 0.29 0.51 0.51 0.74 1.25 1.94 1.68 1.28 1.12 1.06 0.86 0.50 0.31 0.27 0.20
0.00 0.00 0.00 0.00 0.00 0.00 0.00 0.00 0.00 0.00 0.00 0.00 0.00 0.11 0.10 0.27 0.23 0.07 0.02 0.03 0.01 0.17 0.25 0.18 0.30 0.20 0.16 0.10 0.12 0.05 0.08 0.15 0.27 0.31 0.61 1.00 1.21 1.32 1.42 1.42 0.73 0.45 0.34 0.32
0.00 0.01 0.01 0.01 0.00 0.00 0.00 0.00 0.00 0.00 0.00 0.00 0.00 0.08 0.16 0.23 0.45 0.41 0.06 0.04 0.07 0.11 0.14 0.22 0.31 0.33 0.27 0.16 0.14 0.05 0.05 0.04 0.09 0.19 0.31 0.74 0.84 1.07 0.93 0.86 0.81 0.78 0.60 0.62
0.00 0.00 0.01 0.04 0.06 0.04 0.01 0.00 0.00 0.01 0.01 0.01 0.00 0.02 0.12 0.27 0.04 0.04 0.04 0.03 0.02 0.01 0.11 0.24 0.21 0.25 0.24 0.29 0.17 0.08 0.09 0.06 0.08 0.05 0.08 0.20 0.33 0.52 0.79 0.69 0.63 0.51 0.44 0.56
0.00 0.00 0.00 0.01 0.18 0.13 0.04 0.00 0.00 0.02 0.10 0.12 0.04 0.12 0.40 0.38 0.17 0.07 0.04 0.02 0.01 0.01 0.02 0.04 0.04 0.16 0.20 0.15 0.22 0.13 0.12 0.14 0.09 0.05 0.04 0.04 0.07 0.14 0.19 0.35 0.47 0.47 0.41 0.37
0.00 0.00 0.00 0.01 0.04 0.29 0.33 0.13 0.00 0.00 0.10 0.28 0.17 0.22 0.48 0.43 0.34 0.08 0.04 0.04 0.01 0.00 0.01 0.03 0.07 0.07 0.15 0.21 0.12 0.08 0.10 0.13 0.09 0.03 0.03 0.02 0.02 0.03 0.05 0.07 0.07 0.16 0.23 0.22
0.03 0.00 0.00 0.00 0.02 0.12 0.09 0.05 0.01 0.05 0.11 0.14 0.18 0.37 0.32 0.39 0.36 0.26 0.13 0.11 0.02 0.01 0.00 0.01 0.03 0.05 0.05 0.09 0.12 0.09 0.08 0.07 0.07 0.06 0.02 0.01 0.01 0.01 0.00 0.02 0.03 0.04 0.05 0.04
0.16 0.05 0.00 0.01 0.02 0.07 0.05 0.14 0.08 0.08 0.01 0.06 0.14 0.30 0.31 0.30 0.45 0.33 0.23 0.09 0.04 0.00 0.00 0.00 0.01 0.03 0.02 0.03 0.05 0.08 0.06 0.04 0.03 0.03 0.04 0.01 0.01 0.00 0.00 0.00 0.00 0.00 0.00 0.00
0.00 0.00 0.01 0.05 0.11 0.02 0.00 0.00 0.00 0.00 0.01 0.05 0.11 0.23 0.41 0.38 0.31 0.33 0.23 0.09 0.06 0.01 0.00 0.00 0.00 0.01 0.03 0.02 0.01 0.03 0.05 0.04 0.03 0.03 0.02 0.02 0.02 0.01 0.00 0.00 0.00 0.00 0.00 0.00
0.00 0.00 0.00 0.03 0.02 0.00 0.00 0.00 0.00 0.00 0.03 0.05 0.10 0.11 0.14 0.25 0.31 0.24 0.27 0.20 0.11 0.06 0.02 0.01 0.00 0.00 0.01 0.01 0.01 0.01 0.02 0.03 0.03 0.02 0.03 0.02 0.02 0.02 0.00 0.00 0.00 0.00 0.00 0.00
0.00 0.00 0.00 0.00 0.01 0.01 0.00 0.00 0.00 0.00 0.03 0.06 0.10 0.15 0.15 0.13 0.17 0.26 0.21 0.22 0.19 0.06 0.02 0.01 0.01 0.00 0.00 0.00 0.00 0.01 0.01 0.02 0.02 0.02 0.02 0.02 0.01 0.02 0.01 0.01 0.00 0.00 0.00 0.00
0.00 0.00 0.00 0.01 0.01 0.01 0.01 0.00 0.00 0.00 0.00 0.00 0.03 0.09 0.14 0.15 0.14 0.14 0.17 0.18 0.20 0.16 0.04 0.01 0.00 0.00 0.00 0.00 0.00 0.00 0.00 0.00 0.00 0.01 0.00 0.01 0.01 0.01 0.00 0.00 0.00 0.00 0.00 0.00

GFSCGP_prec_precacc24_117.txt.gz
Total_Precipitation_Accumulation
0.00 0.00 0.00 0.00 0.00 0.01 0.06 0.16 0.90 0.94 1.41 2.34 2.34 1.51 0.37 0.33 0.22 0.13 0.00 0.00 0.00 0.02 0.00 0.00 0.04 0.08 0.00 0.00 0.00 0.02 0.07 0.07 0.01 0.01 0.03 0.03 0.05 0.02 0.03 0.12 0.06 0.05 0.03 0.02
0.00 0.00 0.00 0.00 0.00 0.02 0.02 0.21 0.58 0.68 0.92 1.31 2.39 1.82 0.77 0.63 0.30 0.11 0.04 0.00 0.00 0.01 0.00 0.00 0.00 0.00 0.00 0.00 0.00 0.02 0.07 0.10 0.10 0.01 0.02 0.03 0.10 0.08 0.11 0.12 0.19 0.21 0.09 0.08
0.00 0.00 0.00 0.00 0.00 0.00 0.04 0.17 0.46 0.57 0.39 0.76 1.98 2.41 1.60 1.04 0.60 0.46 0.09 0.01 0.01 0.01 0.01 0.00 0.02 0.01 0.00 0.00 0.00 0.01 0.05 0.08 0.15 0.07 0.04 0.11 0.22 0.29 0.33 0.23 0.14 0.10 0.07 0.03
0.00 0.00 0.00 0.00 0.00 0.00 0.10 0.16 0.52 1.10 0.63 0.45 0.26 1.06 1.73 1.05 0.93 0.75 0.19 0.04 0.01 0.02 0.01 0.00 0.00 0.00 0.00 0.00 0.00 0.00 0.01 0.04 0.06 0.17 0.11 0.17 0.20 0.32 0.21 0.14 0.08 0.10 0.10 0.03
0.00 0.00 0.00 0.00 0.00 0.01 0.03 0.15 0.46 0.44 0.44 0.15 0.06 0.31 0.66 0.70 0.66 0.45 0.27 0.04 0.04 0.02 0.01 0.02 0.00 0.00 0.00 0.00 0.00 0.00 0.01 0.07 0.07 0.16 0.28 0.17 0.10 0.05 0.08 0.09 0.19 0.22 0.16 0.13
0.00 0.00 0.00 0.00 0.00 0.01 0.02 0.03 0.15 0.42 0.35 0.29 0.05 0.11 0.21 0.21 0.19 0.15 0.09 0.07 0.05 0.04 0.02 0.02 0.04 0.01 0.02 0.00 0.00 0.00 0.00 0.03 0.12 0.12 0.13 0.29 0.35 0.40 0.22 0.18 0.15 0.13 0.09 0.12
0.00 0.00 0.00 0.00 0.00 0.00 0.01 0.03 0.23 0.30 0.25 0.31 0.06 0.10 0.05 0.01 0.04 0.06 0.02 0.06 0.08 0.06 0.05 0.02 0.07 0.04 0.02 0.02 0.03 0.00 0.00 0.01 0.03 0.04 0.07 0.14 0.32 0.51 0.29 0.18 0.08 0.13 0.12 0.08
0.00 0.00 0.00 0.00 0.00 0.00 0.00 0.01 0.10 0.20 0.17 0.26 0.20 0.21 0.05 0.06 0.04 0.02 0.04 0.10 0.14 0.15 0.13 0.05 0.08 0.07 0.05 0.01 0.05 0.00 0.00 0.00 0.00 0.01 0.04 0.10 0.18 0.16 0.18 0.17 0.27 0.12 0.10 0.06
0.00 0.00 0.00 0.00 0.00 0.00 0.00 0.00 0.00 0.06 0.10 0.21 0.23 0.47 0.18 0.08 0.10 0.01 0.05 0.12 0.13 0.14 0.16 0.08 0.12 0.21 0.10 0.03 0.05 0.04 0.03 0.00 0.00 0.00 0.02 0.04 0.03 0.06 0.27 0.34 0.39 0.18 0.13 0.11
0.00 0.00 0.00 0.00 0.00 0.00 0.00 0.00 0.00 0.01 0.05 0.07 0.19 0.36 0.64 0.13 0.05 0.10 0.05 0.03 0.02 0.06 0.10 0.09 0.09 0.10 0.14 0.03 0.03 0.07 0.14 0.08 0.04 0.02 0.04 0.03 0.02 0.02 0.12 0.22 0.28 0.27 0.37 0.69
0.00 0.00 0.00 0.00 0.00 0.00 0.00 0.00 0.00 0.00 0.00 0.03 0.12 0.18 0.22 0.16 0.16 0.16 0.16 0.11 0.08 0.03 0.10 0.27 0.19 0.14 0.35 0.16 0.11 0.20 0.39 0.32 0.20 0.06 0.10 0.13 0.07 0.04 0.06 0.16 0.18 0.29 0.37 0.34
0.00 0.00 0.00 0.00 0.00 0.00 0.00 0.00 0.00 0.00 0.00 0.00 0.03 0.11 0.14 0.20 0.21 0.15 0.20 0.24 0.20 0.13 0.11 0.22 0.33 0.63 1.04 0.59 0.73 1.45 0.89 0.60 0.39 0.21 0.12 0.08 0.14 0.13 0.09 0.07 0.13 0.27 0.27 0.29
0.00 0.00 0.00 0.00 0.00 0.00 0.00 0.00 0.00 0.00 0.00 0.00 0.01 0.09 0.16 0.13 0.16 0.07 0.07 0.13 0.16 0.18 0.22 0.14 0.27 0.65 1.16 0.81 0.81 1.47 1.56 1.11 0.76 0.61 0.45 0.36 0.58 0.26 0.14 0.10 0.16 0.16 0.19 0.24
0.00 0.00 0.00 0.00 0.00 0.00 0.00 0.00 0.00 0.00 0.00 0.00 0.00 0.03 0.06 0.02 0.09 0.05 0.01 0.02 0.06 0.10 0.12 0.08 0.15 0.34 0.93 1.43 1.17 1.22 1.01 1.25 1.87 1.05 0.74 0.73 0.67 0.40 0.40 0.28 0.22 0.15 0.14 0.16
0.00 0.00 0.00 0.00 0.00 0.00 0.00 0.00 0.00 0.00 0.00 0.00 0.00 0.02 0.04 0.03 0.08 0.05 0.05 0.06 0.09 0.13 0.15 0.11 0.16 0.17 0.27 0.96 0.50 0.51 0.68 0.62 0.83 1.34 1.23 1.16 0.83 0.70 0.72 0.69 0.50 0.32 0.27 0.21
0.00 0.00 0.00 0.00 0.00 0.00 0.00 0.00 0.00 0.00 0.00 0.00 0.00 0.02 0.03 0.31 0.28 0.16 0.13 0.21 0.11 0.20 0.26 0.23 0.46 0.32 0.33 0.25 0.26 0.14 0.23 0.32 0.42 0.38 0.60 0.73 0.91 0.97 0.89 0.81 0.79 0.82 0.54 0.41
0.00 0.01 0.01 0.01 0.00 0.00 0.00 0.00 0.00 0.00 0.01 0.02 0.06 0.06 0.06 0.23 0.48 0.52 0.22 0.46 0.73 0.36 0.24 0.33 0.54 0.81 0.54 0.26 0.16 0.09 0.11 0.15 0.16 0.18 0.24 0.57 0.65 1.02 0.88 0.74 0.74 0.95 0.98 0.96
0.00 0.00 0.01 0.04 0.06 0.05 0.03 0.00 0.00 0.01 0.02 0.06 0.14 0.10 0.14 0.28 0.04 0.05 0.05 0.06 0.23 0.28 0.39 0.50 0.50 0.53 0.39 0.48 0.28 0.12 0.10 0.07 0.09 0.05 0.07 0.16 0.23 0.41 0.73 0.66 0.53 0.54 0.86 1.23
0.00 0.00 0.00 0.02 0.19 0.15 0.04 0.00 0.00 0.02 0.11 0.13 0.06 0.20 0.49 0.47 0.22 0.10 0.05 0.03 0.06 0.15 0.15 0.23 0.16 0.36 0.49 0.28 0.26 0.15 0.13 0.14 0.09 0.07 0.06 0.06 0.07 0.13 0.15 0.34 0.71 0.79 0.52 0.45
0.00 0.00 0.00 0.01 0.05 0.34 0.34 0.13 0.00 0.00 0.12 0.28 0.18 0.28 0.51 0.45 0.38 0.13 0.07 0.06 0.07 0.09 0.11 0.12 0.16 0.26 0.29 0.30 0.14 0.10 0.17 0.13 0.11 0.09 0.09 0.03 0.02 0.03 0.05 0.06 0.06 0.21 0.39 0.41
0.04 0.00 0.00 0.00 0.03 0.15 0.09 0.05 0.01 0.06 0.12 0.12 0.19 0.40 0.35 0.43 0.38 0.46 0.23 0.16 0.04 0.03 0.05 0.06 0.05 0.12 0.13 0.17 0.16 0.10 0.11 0.07 0.07 0.08 0.05 0.01 0.01 0.01 0.00 0.02 0.03 0.04 0.05 0.04
0.16 0.07 0.01 0.02 0.06 0.15 0.06 0.16 0.09 0.08 0.01 0.06 0.15 0.38 0.54 0.47 0.53 0.39 0.29 0.13 0.06 0.02 0.03 0.02 0.02 0.08 0.07 0.06 0.08 0.11 0.07 0.05 0.04 0.03 0.04 0.01 0.01 0.00 0.00 0.00 0.00 0.00 0.00 0.00
0.00 0.00 0.00 0.08 0.18 0.03 0.00 0.00 0.00 0.00 0.02 0.06 0.11 0.29 0.58 0.57 0.43 0.41 0.33 0.13 0.08 0.06 0.03 0.03 0.05 0.05 0.07 0.04 0.03 0.04 0.06 0.05 0.03 0.03 0.03 0.03 0.03 0.02 0.00 0.00 0.00 0.00 0.00 0.00
0.00 0.00 0.00 0.02 0.02 0.03 0.00 0.00 0.00 0.00 0.03 0.05 0.11 0.17 0.33 0.35 0.34 0.26 0.29 0.25 0.13 0.09 0.05 0.06 0.04 0.02 0.02 0.02 0.01 0.02 0.03 0.03 0.03 0.02 0.03 0.02 0.02 0.02 0.01 0.00 0.00 0.00 0.00 0.00
0.00 0.00 0.00 0.00 0.01 0.01 0.00 0.00 0.00 0.00 0.03 0.06 0.10 0.16 0.17 0.16 0.19 0.27 0.21 0.22 0.21 0.13 0.08 0.03 0.02 0.01 0.00 0.00 0.00 0.01 0.01 0.03 0.04 0.03 0.03 0.02 0.02 0.02 0.02 0.01 0.02 0.01 0.00 0.00
0.00 0.00 0.00 0.02 0.02 0.01 0.01 0.00 0.00 0.00 0.00 0.00 0.03 0.09 0.17 0.16 0.14 0.14 0.18 0.18 0.20 0.17 0.07 0.03 0.01 0.00 0.00 0.00 0.00 0.00 0.01 0.01 0.01 0.01 0.01 0.01 0.02 0.02 0.02 0.02 0.01 0.00 0.00 0.00

GFSCGP_prec_precacc24_123.txt.gz
Total_Precipitation_Accumulation
0.00 0.00 0.00 0.00 0.00 0.01 0.08 0.29 1.03 0.80 1.04 2.39 2.39 1.61 0.37 0.37 0.20 0.15 0.00 0.00 0.00 0.02 0.00 0.00 0.04 0.08 0.00 0.00 0.00 0.02 0.07 0.07 0.01 0.01 0.01 0.01 0.00 0.01 0.03 0.09 0.06 0.03 0.01 0.08
0.00 0.00 0.00 0.00 0.00 0.02 0.03 0.32 0.82 0.70 0.80 1.25 2.13 1.68 0.79 0.48 0.13 0.10 0.05 0.00 0.00 0.01 0.00 0.00 0.00 0.00 0.00 0.00 0.00 0.02 0.07 0.10 0.10 0.01 0.01 0.02 0.02 0.03 0.13 0.12 0.20 0.18 0.08 0.07
0.00 0.00 0.00 0.00 0.00 0.00 0.05 0.24 0.58 0.75 0.40 0.57 0.96 1.90 1.41 0.86 0.41 0.34 0.10 0.02 0.01 0.01 0.01 0.00 0.01 0.00 0.00 0.00 0.00 0.01 0.05 0.08 0.15 0.07 0.04 0.09 0.20 0.26 0.37 0.30 0.16 0.09 0.06 0.04
0.00 0.00 0.00 0.00 0.00 0.00 0.10 0.19 0.61 1.28 0.70 0.50 0.24 1.04 1.64 1.01 0.60 0.62 0.20 0.07 0.02 0.02 0.01 0.00 0.00 0.00 0.00 0.00 0.00 0.00 0.01 0.04 0.06 0.18 0.11 0.16 0.20 0.29 0.18 0.15 0.08 0.07 0.08 0.04
0.00 0.00 0.00 0.00 0.00 0.01 0.03 0.16 0.54 0.63 0.53 0.17 0.08 0.32 0.59 0.68 0.56 0.36 0.26 0.06 0.05 0.02 0.01 0.02 0.00 0.00 0.00 0.00 0.00 0.00 0.01 0.07 0.07 0.16 0.28 0.17 0.07 0.05 0.07 0.10 0.16 0.21 0.19 0.10
0.00 0.00 0.00 0.00 0.00 0.01 0.02 0.06 0.22 0.46 0.34 0.28 0.06 0.11 0.17 0.19 0.15 0.10 0.09 0.03 0.05 0.04 0.01 0.02 0.04 0.01 0.02 0.00 0.00 0.00 0.00 0.03 0.12 0.12 0.13 0.29 0.33 0.39 0.21 0.20 0.13 0.09 0.08 0.08
0.00 0.00 0.00 0.00 0.00 0.00 0.01 0.04 0.25 0.29 0.24 0.36 0.12 0.16 0.08 0.01 0.01 0.03 0.03 0.02 0.04 0.03 0.02 0.01 0.05 0.04 0.02 0.02 0.03 0.00 0.00 0.01 0.03 0.04 0.07 0.14 0.32 0.50 0.27 0.23 0.12 0.17 0.12 0.07
0.00 0.00 0.00 0.00 0.00 0.00 0.00 0.01 0.11 0.21 0.21 0.29 0.23 0.50 0.12 0.01 0.00 0.01 0.00 0.02 0.05 0.04 0.02 0.03 0.02 0.03 0.04 0.01 0.05 0.00 0.00 0.00 0.00 0.01 0.04 0.10 0.18 0.16 0.17 0.19 0.29 0.11 0.09 0.06
0.00 0.00 0.00 0.00 0.00 0.00 0.00 0.00 0.00 0.06 0.11 0.21 0.21 0.50 0.18 0.03 0.00 0.01 0.02 0.02 0.03 0.03 0.04 0.04 0.02 0.02 0.05 0.02 0.05 0.04 0.03 0.00 0.00 0.00 0.02 0.04 0.03 0.06 0.27 0.33 0.39 0.18 0.11 0.09
0.00 0.00 0.00 0.00 0.00 0.00 0.00 0.00 0.00 0.01 0.05 0.05 0.16 0.32 0.61 0.09 0.01 0.02 0.03 0.02 0.02 0.05 0.07 0.06 0.05 0.03 0.04 0.01 0.03 0.03 0.05 0.02 0.01 0.01 0.03 0.03 0.02 0.02 0.12 0.21 0.25 0.27 0.38 0.71
0.00 0.00 0.00 0.00 0.00 0.00 0.00 0.00 0.00 0.00 0.00 0.02 0.09 0.12 0.17 0.12 0.10 0.08 0.11 0.07 0.05 0.04 0.06 0.07 0.03 0.07 0.07 0.03 0.00 0.01 0.11 0.09 0.05 0.00 0.00 0.06 0.05 0.03 0.06 0.16 0.18 0.26 0.37 0.33
0.00 0.00 0.00 0.00 0.00 0.00 0.00 0.00 0.00 0.00 0.00 0.00 0.00 0.05 0.04 0.10 0.13 0.08 0.16 0.20 0.17 0.12 0.05 0.03 0.08 0.23 0.26 0.06 0.11 0.45 0.42 0.23 0.11 0.09 0.04 0.00 0.06 0.05 0.07 0.07 0.11 0.26 0.29 0.30
0.00 0.00 0.00 0.01 0.01 0.00 0.00 0.00 0.00 0.00 0.00 0.00 0.00 0.02 0.01 0.00 0.01 0.02 0.02 0.07 0.11 0.08 0.07 0.02 0.05 0.24 0.79 0.47 0.57 0.59 0.59 0.58 0.32 0.24 0.26 0.23 0.37 0.08 0.07 0.04 0.09 0.15 0.17 0.23
0.00 0.00 0.00 0.00 0.00 0.00 0.00 0.00 0.00 0.00 0.00 0.00 0.00 0.00 0.01 0.01 0.02 0.02 0.01 0.02 0.07 0.10 0.07 0.03 0.06 0.20 0.83 1.29 1.17 1.28 0.73 0.77 1.37 0.64 0.56 0.57 0.44 0.18 0.16 0.07 0.03 0.04 0.07 0.13
0.00 0.00 0.00 0.00 0.00 0.00 0.00 0.00 0.00 0.00 0.00 0.00 0.00 0.00 0.02 0.02 0.07 0.06 0.05 0.06 0.14 0.27 0.22 0.12 0.15 0.16 0.25 0.84 0.52 1.14 0.96 0.82 0.82 1.11 1.03 1.05 0.74 0.48 0.44 0.41 0.43 0.19 0.15 0.13
0.00 0.00 0.00 0.00 0.00 0.00 0.00 0.00 0.00 0.00 0.00 0.00 0.02 0.01 0.04 0.33 0.30 0.24 0.22 0.31 0.22 0.35 0.39 0.26 0.48 0.35 0.38 0.27 0.31 0.30 0.47 0.41 0.52 0.51 0.69 0.86 0.93 1.16 0.94 0.77 0.80 0.96 0.68 0.50
0.00 0.01 0.00 0.00 0.00 0.00 0.00 0.00 0.00 0.00 0.01 0.02 0.08 0.10 0.10 0.28 0.53 0.58 0.32 0.64 1.14 0.74 0.53 0.49 0.58 0.90 0.66 0.33 0.27 0.22 0.29 0.30 0.34 0.41 0.37 0.65 0.55 0.76 0.72 0.70 0.86 1.17 1.07 0.88
0.00 0.00 0.01 0.03 0.06 0.05 0.03 0.00 0.00 0.01 0.02 0.05 0.16 0.12 0.16 0.31 0.12 0.13 0.12 0.11 0.38 0.59 0.82 0.93 0.80 0.88 0.70 0.72 0.47 0.35 0.47 0.47 0.37 0.21 0.19 0.19 0.20 0.34 0.63 0.59 0.48 0.48 0.75 1.05
0.00 0.00 0.00 0.02 0.19 0.14 0.04 0.00 0.00 0.01 0.06 0.08 0.06 0.22 0.56 0.57 0.31 0.15 0.15 0.12 0.11 0.24 0.25 0.43 0.66 0.96 1.25 1.05 1.00 0.59 0.61 0.55 0.57 0.39 0.23 0.11 0.10 0.16 0.12 0.31 0.65 0.76 0.45 0.33
0.00 0.00 0.00 0.01 0.05 0.34 0.34 0.13 0.00 0.00 0.08 0.16 0.16 0.28 0.52 0.46 0.42 0.15 0.12 0.09 0.09 0.11 0.14 0.17 0.24 0.55 0.86 1.48 1.42 1.30 1.05 0.98 0.67 0.43 0.42 0.35 0.30 0.30 0.22 0.13 0.07 0.19 0.65 0.87
0.04 0.00 0.00 0.00 0.04 0.15 0.09 0.05 0.01 0.05 0.10 0.01 0.08 0.31 0.33 0.41 0.37 0.46 0.25 0.17 0.04 0.03 0.05 0.06 0.06 0.17 0.43 0.68 0.93 0.86 0.76 0.66 0.94 0.84 0.71 0.47 0.34 0.32 0.14 0.07 0.03 0.03 0.04 0.09
0.16 0.07 0.02 0.02 0.06 0.15 0.06 0.16 0.09 0.08 0.02 0.01 0.05 0.25 0.44 0.42 0.56 0.41 0.28 0.13 0.06 0.02 0.03 0.04 0.06 0.16 0.21 0.36 0.57 0.62 0.66 0.72 1.09 1.07 1.00 0.62 0.33 0.19 0.04 0.02 0.01 0.00 0.00 0.00
0.00 0.00 0.00 0.08 0.18 0.03 0.00 0.00 0.00 0.01 0.04 0.06 0.08 0.24 0.51 0.51 0.40 0.40 0.32 0.13 0.08 0.06 0.03 0.04 0.08 0.09 0.19 0.20 0.22 0.31 0.45 0.49 0.37 0.36 0.40 0.30 0.15 0.08 0.03 0.02 0.01 0.00 0.00 0.00
0.00 0.00 0.00 0.01 0.01 0.04 0.01 0.00 0.00 0.00 0.01 0.03 0.07 0.15 0.30 0.30 0.29 0.24 0.29 0.25 0.13 0.09 0.06 0.07 0.06 0.07 0.06 0.08 0.07 0.07 0.08 0.06 0.05 0.04 0.05 0.07 0.07 0.14 0.10 0.05 0.02 0.00 0.00 0.00
0.00 0.00 0.00 0.00 0.01 0.01 0.00 0.00 0.00 0.00 0.00 0.02 0.07 0.12 0.14 0.12 0.16 0.25 0.21 0.22 0.21 0.13 0.08 0.04 0.03 0.02 0.01 0.01 0.01 0.01 0.02 0.03 0.05 0.04 0.03 0.03 0.03 0.04 0.04 0.05 0.06 0.03 0.00 0.00
0.00 0.00 0.00 0.02 0.02 0.01 0.01 0.01 0.00 0.00 0.00 0.00 0.03 0.10 0.16 0.15 0.14 0.14 0.18 0.18 0.20 0.17 0.07 0.03 0.01 0.00 0.00 0.00 0.00 0.00 0.01 0.01 0.01 0.02 0.02 0.04 0.04 0.03 0.03 0.04 0.04 0.04 0.04 0.02